Wind_Speed
23 22 23 21 20 22 23 25 25 26 25 24 25 24 24 24 23 23 22 21 19 19 18 18 17 16 15 14 11 9 8 10 12 14 15 16 17 16 16 13 11 12 11 11 11 11 11 11 12 12 11 9 6 10 9 6 7 3 2 4 2 3 3 5 7 7 4 4 7 12 16 10 6 9 11 8 7 10 12 10 9 13 11 8 7 6 15 22
22 22 23 22 22 23 24 26 26 27 26 25 25 24 24 24 23 22 22 21 19 19 18 17 16 15 15 13 11 9 8 10 12 14 14 16 17 15 15 14 10 10 11 11 11 10 11 12 13 13 11 9 5 8 9 6 6 3 3 3 3 5 4 4 6 8 4 3 9 12 13 12 9 12 12 7 5 9 9 7 9 11 11 9 9 9 16 22
22 22 23 23 23 24 25 27 27 27 27 27 26 25 24 23 23 22 22 21 20 19 18 16 15 15 15 13 11 9 9 10 12 14 15 16 18 15 14 14 10 11 12 12 12 11 11 12 13 13 11 8 5 7 8 6 5 2 3 3 5 7 4 4 5 7 6 5 11 12 11 10 9 13 12 7 6 6 8 10 10 12 14 12 11 13 18 21
22 22 23 24 25 25 25 26 27 28 27 27 26 25 24 24 23 22 21 20 19 18 17 16 15 15 15 13 11 9 9 7 10 15 16 16 18 16 14 13 11 12 13 12 12 12 11 11 12 13 10 5 4 6 6 6 5 2 4 3 6 6 3 3 3 4 6 8 13 13 9 6 8 12 11 10 7 3 11 18 16 15 16 15 14 15 19 22
22 22 23 25 26 26 26 26 27 28 28 27 26 25 24 23 22 21 21 20 19 18 17 16 15 16 14 13 11 10 9 3 9 16 16 16 17 16 14 12 12 13 14 13 12 12 11 10 12 12 7 3 3 4 4 6 6 3 2 2 5 7 3 3 2 1 5 9 12 11 8 7 8 10 12 13 8 7 13 18 18 16 15 15 16 17 19 22
20 21 23 23 25 26 27 26 27 28 28 27 26 25 24 23 22 20 20 19 19 17 17 16 16 16 15 14 11 13 12 2 8 17 16 17 16 15 15 12 12 13 14 13 13 13 10 9 11 11 5 1 4 3 3 6 5 2 2 2 6 6 2 4 3 1 6 11 13 12 9 9 9 7 12 16 14 12 9 10 15 16 14 15 17 18 20 21
20 22 23 23 24 26 27 27 28 28 28 28 27 26 24 23 22 20 20 19 18 17 16 16 16 16 15 14 12 14 14 4 7 17 18 17 15 14 15 13 13 13 14 13 14 13 10 9 10 10 5 2 4 3 2 6 4 2 1 1 5 5 3 4 3 2 6 10 11 11 9 8 10 6 7 16 21 16 9 7 10 15 16 15 17 19 19 20
22 22 23 24 25 25 27 28 28 28 29 29 27 27 25 23 22 21 20 18 18 17 16 16 16 16 16 15 13 13 14 6 6 15 19 17 14 14 15 13 13 13 14 13 13 13 11 9 10 10 5 1 5 4 4 5 1 2 3 4 5 4 4 5 3 3 5 7 8 9 7 6 8 5 4 14 20 16 13 10 8 12 16 18 18 19 20 20
22 23 23 23 25 26 27 28 28 28 28 28 27 27 25 24 22 21 20 18 17 16 16 16 16 17 16 15 13 9 11 9 6 12 18 17 15 15 14 13 13 14 14 13 13 13 12 10 12 10 4 3 5 5 7 6 1 3 5 6 6 4 4 5 4 4 5 6 7 6 3 1 5 3 7 15 17 15 14 12 9 9 13 18 19 20 21 21
22 23 23 23 24 25 26 26 26 26 27 28 27 26 25 24 22 20 19 18 17 17 16 16 16 17 16 16 13 6 11 12 6 10 17 17 15 14 14 13 13 13 13 14 14 13 13 11 12 11 3 4 6 4 6 5 3 7 8 7 6 4 3 3 4 4 5 5 4 5 2 1 3 2 6 8 9 13 16 15 14 11 12 14 17 19 21 21
22 23 23 23 23 24 25 25 24 26 26 27 26 25 24 23 21 20 19 18 18 17 17 17 16 17 16 16 14 7 10 13 8 9 16 16 14 13 14 13 12 12 13 14 14 12 13 11 12 11 3 3 7 4 4 3 4 11 13 8 6 4 1 1 3 4 4 3 1 3 1 2 2 2 6 4 3 8 14 17 17 16 15 14 15 17 20 22
21 23 22 22 23 23 24 25 25 25 25 26 26 25 24 22 21 19 18 18 17 17 17 16 16 17 16 15 15 11 8 11 10 10 14 15 14 14 14 13 11 11 12 13 13 12 11 10 11 9 4 7 7 3 4 5 8 11 10 4 6 7 3 2 1 3 2 2 1 4 0 4 3 7 6 4 5 5 10 16 18 18 18 17 16 17 19 21
20 22 22 22 23 23 24 25 26 25 25 25 25 25 24 22 21 19 18 17 17 17 17 16 16 16 15 12 13 12 8 8 11 11 14 15 14 15 14 12 11 10 12 12 12 13 12 9 9 8 8 9 5 5 7 7 8 6 4 4 2 7 4 3 1 2 3 2 2 4 1 6 8 11 8 4 6 5 7 13 17 19 20 19 19 19 20 20
20 21 22 22 23 24 25 25 26 25 24 24 24 24 24 22 21 19 17 17 17 17 16 15 15 16 14 9 8 13 11 7 11 13 14 16 16 16 14 12 11 11 10 10 11 13 11 8 8 8 9 9 8 10 7 5 5 2 2 3 2 1 4 5 2 4 4 1 2 5 1 6 9 9 5 7 12 11 12 13 16 20 21 22 21 21 21 21
19 20 22 22 23 24 25 25 25 25 24 24 24 23 23 22 20 19 17 16 16 16 15 15 15 14 11 7 6 12 14 8 10 15 15 16 17 16 15 12 11 11 10 9 11 12 11 9 8 8 9 10 13 10 4 4 4 3 2 2 3 2 5 7 2 4 4 1 2 5 1 6 9 8 3 0 8 11 14 14 14 18 20 22 23 23 23 23
18 20 22 22 24 24 24 25 25 26 25 24 23 22 21 20 19 18 17 16 15 15 15 14 15 13 6 5 6 10 15 12 11 16 17 17 17 15 15 13 11 12 10 8 10 13 13 10 9 8 9 10 9 6 5 3 3 4 3 2 2 2 3 5 2 2 1 2 1 2 3 3 5 5 2 5 4 3 8 11 12 15 18 21 23 23 24 24
17 19 21 22 24 25 25 25 25 26 25 23 22 21 20 19 18 17 16 15 15 14 14 13 14 11 4 5 8 9 15 15 14 18 18 17 16 14 14 13 12 12 11 9 10 13 12 10 9 7 5 5 4 5 5 0 3 3 2 2 3 3 2 2 3 3 2 2 1 1 2 6 7 9 8 6 6 4 6 9 10 12 15 18 21 23 24 24
17 19 20 23 24 25 26 25 25 24 23 22 22 20 19 18 17 17 16 16 16 14 12 12 13 7 6 10 9 10 16 16 16 19 19 18 15 13 13 13 13 13 12 10 9 10 9 5 6 3 3 3 2 5 5 5 5 5 3 3 3 2 3 3 3 2 2 2 2 0 2 9 11 13 19 19 13 11 13 14 14 15 17 18 20 23 24 25
17 18 20 23 24 25 25 25 25 23 22 22 21 20 19 17 17 16 17 19 17 10 5 13 19 6 3 13 14 11 16 17 18 20 19 18 15 14 13 12 14 16 13 8 4 6 6 4 5 3 2 3 6 6 7 8 8 9 7 5 5 4 4 5 4 4 1 3 3 5 5 8 10 10 17 23 17 13 16 18 20 21 22 23 24 26 27 29
18 18 20 22 24 25 24 24 24 23 23 23 24 22 18 16 12 9 17 21 17 6 1 15 26 7 4 13 20 15 17 18 19 22 20 18 16 15 13 13 14 12 8 5 4 3 4 4 3 5 7 8 8 7 5 5 6 7 6 5 4 4 3 4 3 5 1 3 3 4 4 8 11 10 15 24 18 12 18 21 23 26 26 28 29 31 32 33
19 19 20 22 24 24 23 25 25 24 24 24 27 23 18 19 9 7 17 15 12 7 1 14 28 11 2 12 21 17 17 17 18 22 20 18 18 14 12 12 9 5 2 4 5 2 4 5 7 7 8 7 6 7 6 6 6 5 6 5 2 2 2 2 2 4 3 1 3 2 3 8 11 10 16 21 14 12 21 22 24 28 28 30 31 32 34 34
20 19 20 22 24 24 24 26 25 26 26 25 30 23 18 24 12 13 22 10 10 9 1 15 26 13 3 11 19 18 16 12 13 21 20 20 19 13 10 8 6 4 2 3 6 3 3 4 9 7 6 7 6 5 7 7 6 5 4 5 3 2 2 3 3 4 4 1 3 4 5 9 11 10 15 18 14 18 24 23 24 27 28 30 31 33 33 33
20 19 21 23 24 26 26 27 26 27 28 27 30 22 18 23 11 14 21 7 8 10 3 16 23 14 8 12 18 17 14 10 11 20 21 21 20 13 11 8 5 5 3 4 7 5 3 5 7 7 9 9 6 3 7 7 4 4 4 5 3 2 1 1 2 3 3 2 1 3 5 8 7 6 11 13 14 18 21 21 23 25 27 29 29 31 32 32
20 19 21 23 26 28 28 28 27 28 28 27 29 22 19 21 13 15 16 4 4 8 6 15 18 16 13 13 18 16 12 10 12 20 23 22 19 12 10 8 6 5 4 6 8 8 5 5 4 10 7 8 7 3 6 6 1 1 3 6 3 3 4 3 1 2 2 3 2 2 4 6 5 5 7 6 5 10 12 14 17 19 20 22 23 25 25 25
21 20 22 25 28 29 29 28 29 30 29 28 28 22 18 20 16 16 10 4 2 4 5 12 12 14 14 12 17 16 10 9 11 20 24 23 19 11 7 7 6 4 4 5 8 6 5 2 7 10 5 6 8 3 5 7 3 2 3 6 7 7 6 2 1 4 4 4 4 4 3 5 5 5 7 5 6 8 8 8 15 17 17 20 23 23 22 22
23 22 23 27 29 30 27 24 27 30 29 28 27 20 17 19 18 16 8 5 1 3 4 10 8 12 15 12 17 15 6 5 9 19 24 21 18 11 7 5 3 3 5 5 5 3 2 1 5 7 6 6 7 4 5 6 6 1 4 5 7 7 8 5 3 4 1 2 3 4 3 4 7 5 7 6 7 9 9 8 15 19 18 20 24 26 25 23
24 23 24 27 29 30 24 21 27 31 27 26 25 20 18 19 19 15 6 5 3 4 7 8 7 12 15 13 19 14 3 6 9 16 22 20 16 10 7 4 2 3 5 4 2 1 2 3 5 6 7 6 6 4 5 7 8 3 3 6 7 7 8 6 5 4 2 3 4 4 4 2 6 6 7 6 6 10 10 9 13 16 14 13 16 18 17 14
24 23 25 28 29 28 23 21 29 31 26 24 23 19 17 19 18 12 5 2 3 6 6 6 7 11 14 17 21 11 5 12 9 10 20 19 14 8 4 5 5 4 2 5 4 3 2 4 4 5 6 4 4 4 6 8 6 3 3 7 6 6 7 5 6 4 1 1 4 5 1 2 6 7 6 5 4 9 10 9 10 13 11 5 1 1 1 2
23 22 24 27 26 24 20 20 28 29 25 23 22 19 18 20 17 8 3 1 3 4 4 8 10 11 14 16 14 6 7 9 4 9 19 16 12 5 3 5 8 7 4 4 5 3 1 2 5 6 5 4 3 1 3 4 3 4 6 7 6 6 6 5 5 4 2 2 4 6 1 2 5 7 4 3 2 7 8 7 8 9 6 7 11 12 11 10
19 22 24 25 24 22 18 20 27 27 25 24 22 21 22 20 12 5 2 4 2 3 3 9 9 9 14 11 4 2 5 2 4 13 14 10 9 6 7 7 8 8 5 7 4 1 2 1 1 3 3 5 5 3 2 2 5 10 7 7 7 6 5 4 3 4 3 2 6 6 2 1 3 6 4 3 4 6 3 4 5 6 9 12 13 14 12 10
16 19 22 24 24 22 19 22 27 27 26 25 23 23 22 12 4 4 6 3 3 2 3 4 4 7 15 12 4 2 2 2 5 13 8 4 6 6 7 6 4 6 3 4 2 4 4 3 1 1 1 5 7 6 5 5 6 8 5 5 5 4 4 4 4 4 1 5 6 4 2 2 4 6 4 4 6 5 3 2 3 5 8 10 10 10 9 8
17 18 19 21 24 22 20 23 26 27 28 26 24 22 15 5 1 5 4 1 3 3 4 5 4 6 11 9 5 4 3 2 3 7 5 4 5 4 5 5 4 4 1 3 2 3 2 1 2 2 1 4 6 5 5 5 4 5 5 6 5 2 3 2 3 1 3 6 4 2 2 2 6 7 7 9 9 7 8 9 6 6 6 5 6 6 7 8
19 21 19 20 21 20 20 22 25 27 28 28 24 15 7 3 7 7 3 1 2 2 4 5 2 5 10 8 4 4 3 2 3 3 2 3 5 4 2 3 6 5 3 5 3 1 1 4 3 2 2 5 5 6 4 1 0 4 5 6 4 3 2 2 4 2 4 4 3 3 2 3 4 5 9 12 9 6 8 9 7 8 9 7 5 5 9 10
21 23 23 21 20 19 19 21 24 25 26 29 21 8 5 6 7 5 5 4 1 2 3 4 6 7 7 5 5 5 3 1 4 4 3 4 5 6 5 4 4 5 4 4 3 5 4 4 4 4 2 5 5 4 7 6 3 3 3 6 5 5 5 4 4 3 4 3 3 3 1 3 2 1 6 9 8 8 9 9 8 9 9 6 6 7 9 9
21 22 23 21 19 18 17 21 24 23 26 27 13 4 7 10 5 4 6 5 1 2 3 4 8 8 4 1 1 4 2 1 4 4 4 5 6 7 7 6 5 4 6 6 2 3 4 4 4 1 1 7 6 3 5 7 2 2 2 5 3 5 5 3 3 5 3 1 2 2 3 4 3 5 8 5 5 8 10 11 9 9 9 5 2 5 7 8
21 22 23 21 19 18 17 21 22 23 29 23 7 4 9 6 3 4 5 5 4 5 7 4 4 5 4 1 2 5 1 2 5 4 4 4 3 6 7 5 7 6 6 7 3 2 3 3 4 4 2 3 2 2 3 4 3 2 2 3 5 4 7 5 2 1 3 1 3 1 4 5 3 7 8 3 4 5 5 8 7 5 4 1 5 6 7 10
18 21 22 22 23 21 19 20 20 24 28 17 6 8 5 1 3 4 3 6 8 10 9 5 2 4 6 4 5 7 2 2 4 3 4 3 2 6 7 4 7 10 8 5 2 3 5 1 4 2 1 2 2 3 4 4 4 5 3 6 4 2 4 4 2 2 4 3 4 1 4 5 2 4 6 4 5 7 5 4 2 0 3 7 9 9 12 14
13 15 17 19 21 22 23 21 20 23 21 9 8 10 2 1 3 2 3 6 9 8 6 5 3 3 6 6 5 7 5 4 5 4 5 4 5 7 9 5 6 12 12 5 2 3 5 2 3 1 2 3 4 4 2 5 4 4 4 4 4 3 1 2 2 1 1 3 4 4 4 3 4 5 4 2 6 8 7 3 3 3 6 8 9 13 16 17
10 10 11 14 17 20 23 23 23 22 13 6 11 10 1 2 2 1 5 6 6 6 5 5 3 2 5 7 5 6 6 6 8 5 4 4 5 6 10 8 5 11 15 8 3 3 4 3 2 2 1 2 3 2 5 1 4 4 3 3 3 3 4 3 3 4 3 2 3 4 4 3 6 6 5 7 9 9 7 4 6 7 8 10 13 16 16 15
10 6 5 11 15 16 20 21 20 17 8 5 7 5 1 2 1 2 5 4 3 3 3 4 3 4 5 4 4 6 5 5 8 6 4 5 5 4 8 9 4 8 12 7 3 3 3 3 3 1 2 1 2 3 6 7 4 3 4 4 2 1 2 2 1 3 4 3 2 3 4 5 5 4 8 10 9 8 7 6 8 9 11 13 15 16 15 13
12 4 2 10 12 13 18 17 11 7 4 3 2 1 0 1 2 2 2 2 2 2 3 4 4 5 5 4 4 5 4 4 6 5 3 6 6 4 8 11 9 9 8 3 2 4 2 3 4 2 1 4 4 3 3 6 7 6 6 7 7 5 4 3 3 1 2 3 4 3 4 7 5 4 6 6 4 6 6 8 11 11 13 14 14 14 12 11
12 3 3 12 13 12 14 9 1 1 2 2 1 2 2 2 2 2 2 2 2 2 3 3 2 3 4 5 4 5 6 5 5 6 4 7 8 5 7 12 15 17 12 5 4 4 3 4 4 2 4 6 5 3 1 3 3 3 3 4 5 5 5 6 5 3 1 1 2 3 3 7 5 3 3 3 3 7 8 12 15 14 13 12 11 11 10 10
11 4 6 14 16 15 11 2 1 1 0 0 1 2 2 2 2 2 1 1 1 2 2 1 1 2 2 3 4 7 8 5 6 7 5 4 6 5 6 13 17 16 11 5 4 4 4 4 4 1 3 4 4 5 3 3 3 2 2 2 5 4 3 6 5 4 4 3 3 3 3 7 6 3 1 1 5 9 10 14 16 13 10 9 9 9 10 11
9 5 6 13 18 19 11 2 1 4 2 1 2 1 1 1 1 2 2 1 1 2 2 1 1 1 2 2 4 7 8 5 6 8 5 3 4 5 7 14 16 12 8 7 8 9 6 2 4 3 2 3 4 3 3 2 2 3 3 3 5 5 6 4 2 3 2 5 6 5 5 7 5 5 4 3 7 9 10 13 15 10 7 7 7 9 10 13
7 4 4 9 18 21 11 3 3 3 3 4 2 1 1 0 2 4 3 1 2 3 3 2 2 3 3 2 3 4 7 4 3 5 4 2 2 2 4 12 16 12 7 8 12 14 8 3 5 6 6 6 6 5 5 4 3 2 2 4 5 7 9 5 2 3 4 5 7 7 7 5 4 5 3 2 5 6 7 10 11 7 5 6 8 11 13 17
5 2 2 4 12 16 10 7 8 3 3 5 2 2 5 3 2 4 5 2 2 3 2 1 2 4 3 3 4 4 5 2 2 4 5 4 3 0 1 7 13 12 6 6 13 13 4 2 6 9 10 12 10 6 5 8 7 5 6 8 8 8 11 8 4 5 8 3 4 9 9 6 5 4 3 6 6 6 7 10 10 4 4 7 10 13 15 17
3 1 3 3 4 7 6 8 10 5 4 7 3 3 7 5 1 2 5 4 4 5 2 2 2 3 3 6 5 4 5 2 2 3 4 4 2 1 1 3 6 9 6 6 12 10 4 3 8 9 12 12 8 6 7 10 11 13 12 12 11 11 12 10 9 12 8 4 6 11 8 8 11 7 7 9 7 6 8 9 7 2 7 10 12 13 13 13
2 0 3 4 2 3 4 8 11 7 6 7 4 3 7 7 4 3 4 2 2 5 3 1 3 5 5 6 5 4 5 3 2 3 3 2 2 1 2 2 2 5 6 6 7 6 4 5 7 7 11 12 4 5 8 9 10 12 13 15 15 13 13 14 16 16 10 7 13 12 10 12 16 9 10 12 11 10 8 6 1 6 9 11 11 11 10 9
3 1 2 3 2 1 1 5 12 9 7 8 5 4 7 9 8 6 3 3 1 4 5 4 4 5 5 4 4 5 6 5 5 5 3 3 3 2 2 1 0 3 5 5 4 3 3 4 4 6 9 11 4 4 7 9 8 8 11 14 15 16 17 19 19 19 15 13 16 13 10 14 14 8 10 14 15 13 5 1 4 9 10 10 9 7 5 5
4 2 2 2 1 0 2 3 10 8 6 7 6 5 7 9 10 8 4 5 4 2 6 6 4 5 6 4 3 4 6 5 4 5 5 4 3 2 3 3 2 2 2 3 2 2 3 3 2 6 5 8 4 4 5 8 9 8 9 11 12 14 17 18 18 17 13 12 16 14 11 13 7 8 12 14 13 9 3 4 9 11 9 5 3 0 3 4
7 5 3 2 1 1 1 1 5 6 5 6 6 6 8 11 12 9 5 9 9 5 5 8 5 4 4 5 6 7 6 4 4 4 6 5 3 3 2 3 4 4 2 2 2 2 4 3 2 5 4 6 3 6 5 4 4 5 8 10 13 14 14 15 14 12 11 13 15 13 12 12 6 9 10 8 7 6 5 6 7 6 2 3 4 4 3 4
13 8 5 2 1 1 2 0 2 6 6 8 9 7 6 8 11 10 6 9 14 14 11 9 7 4 4 6 9 10 6 4 2 2 3 3 3 3 3 3 5 5 4 3 2 2 5 4 2 4 5 4 2 6 7 6 3 5 10 14 17 16 13 10 9 11 14 14 12 11 12 9 4 8 6 4 6 7 7 7 7 6 7 7 6 6 7 7
Wind_Direction
201 192 189 187 180 177 175 173 173 174 175 175 174 173 173 173 175 175 176 178 180 182 184 189 193 193 188 184 187 195 204 213 212 207 205 203 200 198 197 193 186 190 194 189 182 181 179 176 178 174 176 177 177 182 174 169 170 161 105 99 150 178 199 187 177 189 162 180 192 182 179 166 151 163 170 175 179 175 173 192 196 197 215 211 207 204 182 180
196 192 192 188 182 180 176 174 174 174 175 175 175 175 174 175 177 177 177 179 182 184 187 190 193 190 183 181 185 192 206 212 212 209 203 197 195 197 199 197 189 189 187 180 177 177 175 175 177 174 173 175 176 182 181 179 163 136 101 110 202 201 206 203 185 188 162 163 182 179 182 176 170 164 163 166 171 169 172 198 198 201 207 194 195 193 184 183
192 191 192 187 182 182 179 176 175 175 175 175 176 176 176 177 178 179 178 181 184 187 189 190 190 187 183 182 182 189 203 210 215 210 199 193 193 195 199 201 195 187 181 174 176 174 172 174 176 174 171 172 172 177 179 180 173 150 116 121 234 211 208 235 210 196 198 187 170 171 181 180 177 169 169 172 162 177 197 199 195 200 200 190 184 183 185 186
194 193 192 186 182 184 183 179 176 176 175 175 176 176 177 179 180 181 181 182 187 190 190 189 187 183 183 181 179 186 191 204 218 207 194 190 190 191 195 198 191 183 178 174 175 171 168 172 175 175 170 166 163 172 182 182 185 177 139 171 222 183 158 222 209 203 215 197 171 166 166 176 184 178 180 164 140 236 228 210 209 209 202 192 186 183 188 191
198 196 194 188 183 183 185 183 179 177 176 177 177 178 178 180 182 183 184 185 190 193 190 189 185 182 182 180 181 180 168 171 212 199 189 188 187 189 192 191 185 180 177 176 176 171 167 168 171 173 169 167 145 155 202 185 162 144 179 235 178 152 132 192 188 173 183 171 163 157 157 181 182 186 195 174 163 227 230 225 224 224 215 206 201 191 189 194
202 199 195 190 186 185 185 186 183 179 177 178 179 180 180 181 183 185 188 190 192 194 191 190 184 181 180 181 183 176 171 162 195 188 185 185 185 189 190 187 182 178 179 179 178 175 173 168 167 171 158 129 163 162 191 174 159 152 254 276 155 161 164 161 173 164 157 158 164 166 172 181 172 194 210 197 208 223 229 245 234 231 229 221 213 200 194 197
200 197 193 190 189 187 187 188 187 182 178 179 181 181 181 183 184 188 192 193 195 194 193 191 184 181 181 182 182 181 195 220 178 183 185 185 186 189 188 185 182 181 182 181 182 183 181 173 171 173 144 75 182 195 161 162 161 126 171 228 155 179 196 161 163 166 172 174 176 175 178 186 181 192 214 214 226 229 237 260 239 231 227 221 216 210 208 204
197 195 191 189 189 189 190 191 189 185 181 181 183 182 183 184 187 190 193 193 194 194 194 192 185 182 181 184 184 188 207 213 166 182 186 188 191 188 186 185 185 185 184 184 187 188 186 181 176 174 159 157 193 183 146 140 89 92 164 191 145 149 175 170 165 151 174 179 172 172 173 193 197 200 234 231 232 230 234 242 237 226 220 219 219 218 218 213
197 195 191 189 190 190 193 193 191 189 185 184 184 184 184 185 188 191 193 192 192 193 195 194 188 183 181 186 185 189 203 193 168 183 186 190 190 185 185 187 188 188 186 186 189 193 193 183 180 180 186 207 182 164 153 143 247 199 165 163 137 116 143 163 174 148 151 162 164 171 159 171 193 228 264 249 242 233 228 225 223 219 215 218 221 223 223 222
196 196 193 191 190 191 193 194 194 192 189 187 186 186 185 185 188 190 191 191 191 193 194 194 191 185 183 186 184 183 196 191 186 185 185 189 186 184 186 188 191 190 188 187 189 196 195 187 185 181 178 185 160 145 160 155 215 176 134 112 98 92 124 148 177 165 152 153 166 178 190 258 159 209 260 253 244 228 222 219 221 225 221 219 223 227 228 230
196 195 194 192 191 192 192 192 195 195 193 189 187 187 186 185 187 189 191 191 191 192 194 195 192 187 185 187 187 185 192 194 195 184 185 188 184 184 186 187 189 189 191 188 187 191 190 190 187 179 178 171 151 123 155 170 165 149 130 94 33 34 102 81 150 167 156 143 170 157 189 304 121 213 239 227 239 226 220 220 221 224 226 226 228 230 230 232
196 195 194 193 193 192 190 189 193 196 195 192 190 188 186 186 187 189 192 192 192 192 193 194 191 189 185 190 198 195 186 194 198 187 185 187 185 184 182 181 184 188 193 189 185 182 178 179 180 184 180 153 148 111 138 146 133 134 125 105 348 5 13 319 107 168 155 118 140 116 22 295 233 226 231 216 231 228 219 223 223 225 229 231 233 232 231 232
198 194 194 194 193 192 190 190 191 193 195 195 193 190 187 186 185 188 192 193 192 191 192 192 191 190 185 192 206 200 188 192 196 189 185 187 186 183 178 177 179 183 188 188 187 180 172 172 174 179 163 150 142 124 133 120 118 124 89 104 12 6 349 307 15 175 151 112 164 126 235 278 255 241 232 216 230 229 224 227 227 230 233 234 234 234 234 235
200 196 194 193 193 192 191 191 190 191 194 198 197 193 189 185 183 186 191 192 192 189 189 191 190 189 188 195 209 202 198 192 190 188 185 186 184 181 178 178 180 180 182 187 188 181 174 173 171 159 149 146 131 123 111 59 78 95 45 56 49 83 271 304 349 162 142 177 200 119 163 260 273 277 259 235 245 249 247 241 235 235 236 236 235 236 238 239
201 198 195 193 193 192 192 191 190 190 193 199 200 196 191 185 182 183 187 190 190 188 186 188 188 186 192 208 213 203 203 200 189 185 183 184 183 181 180 180 183 184 183 182 182 180 175 173 166 140 128 135 128 117 62 16 30 38 94 317 342 166 259 311 316 172 149 184 162 114 194 265 277 294 25 216 255 250 246 245 241 238 238 238 239 240 243 245
202 199 196 194 194 193 193 191 190 190 191 197 200 198 194 187 180 179 184 186 185 184 181 182 186 181 183 213 212 204 202 201 189 182 181 181 182 183 183 183 185 189 186 176 173 172 170 164 146 124 121 131 126 103 60 40 355 1 106 196 271 177 265 315 313 255 155 138 105 111 216 266 287 267 95 51 357 285 245 244 241 243 244 242 243 244 247 250
201 199 197 195 194 194 192 192 192 191 190 195 199 199 195 186 178 176 178 179 178 175 174 176 180 182 210 221 208 203 197 196 186 182 181 179 182 186 187 187 186 190 186 171 167 164 163 154 137 128 109 109 108 95 92 34 267 295 58 142 225 193 201 281 293 299 52 116 261 26 230 249 278 275 265 292 318 308 270 257 250 251 253 250 248 248 249 251
202 199 197 196 196 194 192 193 193 191 190 192 195 195 192 183 174 170 170 172 167 158 161 171 166 172 242 219 204 197 193 191 184 181 181 180 182 185 188 189 184 181 169 157 162 161 156 134 124 129 51 71 122 116 139 210 199 191 185 157 211 212 201 240 253 254 56 75 232 20 282 262 271 282 278 278 286 287 279 274 270 265 261 258 254 252 251 253
207 202 199 197 197 194 192 193 192 190 189 190 190 186 180 170 159 159 165 166 159 147 161 181 171 156 276 203 194 194 189 185 182 181 181 181 180 182 184 180 175 169 154 144 158 159 142 101 98 125 138 165 188 167 175 198 174 173 178 149 156 175 225 242 250 265 121 110 229 224 237 265 272 283 281 277 281 285 280 276 272 268 263 260 257 256 256 257
213 208 202 199 198 194 191 190 189 188 187 187 184 176 166 155 140 146 166 167 166 162 256 187 181 179 9 179 183 184 179 177 181 181 181 183 179 175 170 162 163 158 150 152 159 152 126 131 168 185 190 191 190 169 148 152 141 142 133 114 146 166 235 251 264 304 57 137 251 243 243 270 270 274 275 275 283 284 273 270 265 262 259 258 258 258 259 260
217 213 203 199 197 192 189 187 187 186 184 184 181 174 167 163 149 160 170 172 183 186 311 185 186 198 1 170 177 173 167 170 181 182 182 182 175 168 164 157 149 142 175 146 123 107 112 158 210 212 195 175 157 145 115 96 93 103 131 130 133 170 219 245 253 316 8 143 261 341 314 274 263 267 269 271 277 266 259 257 257 258 256 256 257 257 259 261
218 213 202 198 194 188 185 183 184 184 181 182 181 178 178 176 175 177 170 170 195 191 231 183 186 202 198 171 173 167 162 161 179 185 181 176 173 173 170 154 137 149 190 120 108 91 107 205 231 209 157 111 96 113 100 88 87 82 118 131 136 198 236 285 298 333 14 41 264 343 333 275 261 261 262 259 253 255 257 255 258 260 260 259 258 258 260 262
218 211 198 195 190 184 179 178 180 182 181 184 183 180 180 182 185 177 168 151 182 188 193 180 186 196 177 168 174 170 165 159 174 185 181 176 176 177 168 149 128 142 155 157 144 137 159 248 234 167 140 116 91 91 96 87 84 87 110 129 165 237 162 224 289 330 8 57 262 308 307 280 280 282 273 264 252 259 265 263 262 260 259 260 260 260 261 262
217 208 196 191 186 180 175 175 178 180 183 185 185 182 180 184 183 170 162 99 157 185 191 182 187 193 178 168 177 178 176 171 176 182 181 179 175 172 169 150 124 138 169 172 151 154 200 257 153 129 131 129 116 117 124 121 88 44 137 139 160 202 173 188 304 343 352 20 29 2 319 292 319 327 296 298 282 270 269 265 263 257 253 256 259 260 260 260
214 204 193 187 184 177 172 176 178 179 183 184 185 184 181 184 179 166 155 55 136 189 191 187 193 196 187 176 180 180 176 177 180 181 182 182 174 163 160 150 138 165 180 145 133 161 224 250 133 122 96 113 122 154 176 151 139 296 218 176 174 172 163 173 35 57 36 356 346 24 360 290 318 318 276 312 343 303 290 273 265 263 257 255 258 260 258 258
212 200 189 186 180 172 171 178 179 179 182 183 184 184 182 182 174 168 151 46 250 210 171 183 189 190 190 182 173 165 162 199 188 182 181 182 179 163 148 146 108 160 169 139 129 171 222 63 114 125 115 111 118 166 203 151 124 223 237 178 154 133 128 142 117 81 87 264 314 43 107 263 309 301 268 306 334 308 304 284 272 277 277 267 263 263 264 267
204 193 184 179 174 169 172 177 178 179 179 181 183 182 183 179 169 166 135 33 263 183 150 177 179 180 186 177 167 158 150 182 170 181 182 179 183 170 160 175 80 135 167 133 136 226 151 87 67 95 102 105 126 177 206 146 126 210 229 129 121 117 129 143 110 91 201 238 328 14 110 233 295 270 269 321 335 308 302 288 287 300 303 287 270 264 266 270
187 183 177 172 170 170 173 178 179 178 177 179 179 177 179 173 166 160 120 54 206 147 144 177 168 172 176 170 171 164 138 154 147 182 183 177 181 167 165 195 148 138 143 124 176 258 111 149 166 127 99 121 174 211 184 133 109 234 198 117 118 120 124 120 97 93 24 358 314 315 105 192 272 275 300 346 329 293 291 284 294 317 325 321 292 205 130 123
172 175 173 169 167 167 173 179 178 177 175 173 170 171 171 165 160 138 93 199 165 112 139 162 159 170 165 161 173 160 134 150 137 169 174 173 178 159 129 176 139 111 55 82 165 233 41 179 194 141 128 179 202 256 169 131 96 173 143 96 78 72 78 76 89 103 46 20 251 258 206 186 267 287 312 3 272 257 274 282 292 326 8 75 86 87 88 88
172 175 170 167 167 168 173 174 174 175 171 165 163 162 158 155 151 129 182 219 148 92 127 152 165 170 155 148 165 153 133 135 116 141 155 164 167 140 112 134 119 101 39 33 93 243 330 23 103 105 140 173 140 78 71 89 132 138 112 70 58 33 32 43 52 77 56 307 255 248 251 172 267 282 255 208 218 220 250 302 306 356 53 84 87 85 84 82
174 173 167 168 171 171 171 169 172 173 167 160 155 152 148 140 122 151 198 205 113 97 103 144 176 158 157 158 162 163 108 50 134 141 144 148 148 132 119 129 101 85 46 27 44 323 354 54 20 343 139 133 106 67 42 52 106 116 89 84 82 2 7 24 360 35 100 258 264 262 275 171 216 263 252 242 257 232 203 216 276 341 36 70 84 86 76 69
175 171 171 174 174 172 170 171 172 170 167 161 153 151 143 115 197 196 201 154 142 186 167 172 204 168 165 157 136 151 115 85 162 151 147 144 153 168 155 167 156 107 157 187 157 335 19 61 299 331 232 167 115 76 47 17 35 77 93 100 91 5 6 352 310 341 217 245 276 286 271 210 228 251 255 260 265 249 235 224 234 299 332 26 64 79 58 54
177 171 182 184 177 173 169 171 173 171 171 166 160 153 117 122 208 201 196 212 193 190 149 144 142 148 154 143 142 161 111 128 186 150 131 135 158 201 228 197 153 126 183 179 130 120 288 308 303 75 260 217 158 123 132 236 93 121 132 127 124 126 105 266 264 285 258 257 295 288 263 259 272 265 245 250 254 256 257 240 247 296 305 326 7 50 53 56
176 173 188 187 177 175 169 170 175 174 174 169 162 139 117 185 207 162 164 212 221 54 91 114 109 125 145 146 179 175 106 141 179 133 116 125 148 200 227 223 170 103 113 147 149 167 180 276 225 167 201 194 180 170 157 147 145 177 157 131 145 157 159 212 216 212 242 273 304 294 255 206 201 262 240 245 258 263 260 250 263 290 294 322 19 57 60 62
174 177 182 176 171 175 169 170 175 175 173 167 152 121 177 202 211 151 171 192 169 56 54 91 115 131 154 70 185 197 143 168 172 128 149 166 173 193 195 201 191 129 132 161 202 170 166 247 251 288 191 163 173 201 139 113 108 246 119 109 164 183 143 138 183 176 174 302 306 257 236 215 205 279 272 250 259 262 254 253 260 272 280 298 51 83 71 71
164 172 177 178 180 178 170 173 175 174 172 163 142 192 199 205 200 180 171 147 145 130 104 87 97 133 173 119 188 225 229 116 156 147 181 196 204 198 192 199 190 180 167 159 173 168 155 257 302 352 15 138 150 181 129 119 168 171 124 173 214 170 114 111 209 63 83 243 271 212 250 292 324 296 299 303 284 292 277 264 262 266 282 236 144 123 88 86
155 165 175 186 190 183 175 176 175 174 173 164 172 206 201 160 176 178 147 126 138 140 129 140 164 155 171 171 190 202 187 116 156 168 184 193 232 196 194 225 193 188 191 155 165 200 153 191 314 32 129 323 16 98 67 45 113 128 177 205 192 117 91 107 192 359 46 245 275 265 244 290 319 278 322 338 277 283 280 269 309 237 143 124 130 117 97 92
156 160 165 175 184 184 179 180 180 176 171 166 208 216 197 120 194 184 150 135 132 137 142 163 167 146 169 181 188 184 177 168 172 182 173 184 243 197 177 203 193 190 200 175 152 209 144 141 309 12 161 303 6 99 86 13 54 126 171 165 122 138 172 98 148 184 136 237 281 304 278 265 210 229 304 285 223 246 249 202 118 171 150 120 113 107 101 95
167 156 157 164 173 180 179 181 182 175 166 180 211 218 197 132 220 190 156 148 129 135 164 181 165 112 169 174 165 170 187 181 170 182 180 182 236 205 176 187 191 189 195 177 153 197 142 143 250 314 263 308 19 134 194 208 36 60 101 104 83 134 166 158 152 164 171 200 261 309 320 273 227 217 218 219 215 225 230 169 162 180 138 110 112 111 106 97
177 154 163 172 170 178 182 177 173 169 176 209 203 207 34 116 196 172 153 152 127 128 169 188 164 144 164 164 153 170 186 175 168 184 207 190 211 233 195 189 169 175 182 161 133 168 131 158 206 319 344 207 195 217 190 169 146 110 122 153 181 85 106 156 157 119 139 161 194 281 299 270 251 214 198 218 221 210 204 154 152 160 131 119 120 113 102 88
179 155 187 184 175 173 170 164 163 169 192 217 167 145 160 122 140 165 160 136 99 83 133 157 155 152 154 152 172 179 160 153 172 186 214 202 204 231 209 190 161 145 153 131 155 179 152 166 171 138 182 204 225 259 190 167 168 166 176 185 181 157 122 153 242 254 122 157 170 192 267 262 252 213 201 228 230 198 179 130 126 134 130 125 115 101 85 69
175 156 165 179 184 175 157 147 155 209 183 189 151 132 134 96 114 156 161 102 75 60 87 110 128 149 159 161 165 162 153 158 182 189 210 214 205 210 208 190 166 154 156 165 188 175 119 111 128 154 213 217 242 286 228 163 134 132 197 197 170 162 139 153 209 228 139 174 152 128 265 269 263 229 208 258 229 181 146 120 122 127 123 110 91 75 61 46
172 170 159 171 187 186 164 121 319 193 207 261 119 80 83 89 111 137 171 145 77 72 81 100 133 146 173 164 148 162 169 173 189 197 209 217 211 216 200 181 168 160 161 169 177 161 120 113 132 188 304 304 313 340 22 65 91 127 235 178 158 183 152 147 181 176 161 195 153 112 258 266 279 307 327 206 170 159 140 127 129 128 112 87 65 53 39 21
163 157 161 175 188 185 171 141 199 185 191 81 64 26 33 113 148 141 162 176 143 117 120 158 168 141 169 141 136 174 183 180 199 205 203 197 206 207 183 176 173 168 175 186 179 174 181 164 132 129 19 352 335 334 331 299 183 194 225 183 167 147 103 104 127 110 198 217 166 161 240 252 274 324 6 102 137 141 143 139 134 123 92 64 42 27 13 1
151 145 170 188 188 184 180 187 171 156 139 123 110 219 198 244 208 192 179 145 159 155 138 179 164 109 126 118 86 162 183 170 181 192 184 202 215 175 166 182 183 183 197 200 174 165 178 192 148 155 180 195 205 214 216 204 170 183 201 176 173 147 137 159 137 120 235 227 161 188 238 249 283 323 354 154 158 148 157 159 147 120 59 25 11 2 355 353
150 167 170 176 184 186 191 189 174 162 147 149 144 189 183 196 224 189 177 173 205 160 98 44 152 102 102 140 118 164 196 164 87 169 182 198 217 262 152 186 190 195 204 181 165 157 144 209 187 188 203 205 205 199 157 132 144 203 204 177 180 180 175 173 140 178 216 196 173 223 231 233 255 274 254 218 193 179 183 177 164 133 23 352 346 345 349 354
141 209 172 146 180 194 194 181 177 183 170 165 170 174 178 192 218 175 183 198 206 181 123 20 169 160 173 165 146 167 190 137 79 162 174 180 196 335 31 141 175 195 191 162 168 156 100 219 208 203 219 223 207 185 165 148 169 199 196 184 191 190 181 179 194 213 202 150 237 234 201 222 243 225 219 224 205 212 214 184 164 31 348 333 334 341 352 3
167 280 173 163 170 199 206 185 181 186 170 167 180 165 167 181 185 185 190 176 181 185 179 297 222 198 186 170 157 152 160 163 214 197 162 155 163 59 39 46 103 172 163 152 171 152 124 216 214 193 224 239 211 166 184 175 184 199 194 193 197 188 184 193 210 220 195 182 241 231 166 209 237 213 207 220 206 208 205 169 144 337 324 319 337 353 1 6
206 254 203 191 176 171 288 182 174 181 180 172 179 173 170 180 190 199 176 121 158 212 194 216 220 190 188 182 151 149 168 178 201 205 172 137 151 128 114 110 50 157 144 140 169 159 150 222 208 172 220 245 220 163 190 186 189 206 201 198 196 191 194 201 212 222 211 208 240 239 200 226 239 200 208 226 215 208 196 88 308 303 308 324 356 13 357 335
208 228 189 168 171 4 340 174 170 182 192 182 194 198 180 183 192 200 184 161 177 197 191 208 195 151 178 197 164 189 209 187 165 187 181 159 172 191 177 179 169 117 114 132 150 163 182 217 157 137 205 252 221 162 192 196 197 209 212 208 203 198 204 210 215 220 217 222 242 247 246 256 244 174 204 225 214 211 250 305 287 293 309 334 24 327 269 273
206 220 184 134 100 210 269 211 170 183 193 192 201 196 194 204 197 187 198 203 199 189 180 188 168 131 175 204 209 222 218 179 145 149 150 147 158 179 189 179 154 134 120 146 138 130 170 205 77 115 191 249 212 156 162 165 179 224 231 219 208 205 209 214 216 213 206 217 233 240 248 257 227 165 192 220 202 205 243 254 258 269 252 190 190 207 217 202
207 216 207 169 24 204 195 327 184 191 201 206 205 191 187 203 187 170 191 213 207 213 215 190 161 153 183 202 223 232 218 200 229 211 191 237 259 229 210 170 145 146 141 134 127 136 156 165 138 154 196 239 185 145 130 111 131 237 239 219 209 210 210 209 222 227 215 209 214 222 234 245 197 152 161 180 178 184 197 208 216 200 181 183 185 172 160 159
Height
1463 1465 1466 1467 1468 1469 1471 1473 1475 1477 1479 1481 1484 1486 1488 1491 1493 1495 1496 1498 1500 1502 1504 1505 1507 1508 1509 1510 1511 1512 1513 1514 1515 1515 1515 1516 1518 1520 1521 1521 1521 1521 1522 1523 1523 1524 1525 1525 1526 1527 1529 1530 1531 1532 1533 1533 1534 1534 1538 1541 1544 1547 1545 1541 1542 1542 1539 1539 1540 1540 1541 1543 1544 1545 1546 1547 1548 1548 1549 1549 1549 1550 1550 1550 1550 1550 1550 1551
1462 1464 1465 1466 1468 1469 1470 1472 1474 1476 1479 1481 1483 1486 1488 1491 1493 1495 1496 1498 1500 1502 1504 1505 1507 1508 1509 1510 1511 1512 1513 1514 1514 1514 1514 1516 1517 1519 1520 1521 1521 1521 1522 1522 1523 1524 1524 1525 1526 1527 1529 1530 1531 1532 1533 1533 1533 1535 1540 1542 1542 1544 1540 1537 1538 1538 1537 1537 1538 1540 1541 1542 1542 1543 1545 1546 1548 1548 1549 1549 1549 1549 1549 1549 1549 1550 1550 1551
1462 1463 1464 1466 1467 1469 1470 1472 1473 1476 1478 1481 1483 1485 1488 1491 1493 1495 1496 1498 1500 1502 1503 1505 1506 1507 1508 1509 1510 1511 1512 1514 1514 1513 1514 1515 1517 1518 1520 1520 1520 1520 1521 1522 1523 1524 1524 1525 1526 1527 1528 1530 1531 1531 1532 1533 1533 1534 1538 1540 1539 1539 1538 1537 1537 1537 1537 1536 1538 1539 1540 1542 1542 1543 1544 1545 1547 1548 1547 1547 1547 1548 1548 1549 1549 1549 1550 1551
1461 1462 1464 1465 1466 1468 1470 1472 1473 1475 1478 1481 1483 1485 1488 1490 1493 1494 1496 1498 1500 1502 1503 1504 1505 1506 1508 1509 1510 1511 1512 1513 1512 1512 1513 1514 1516 1518 1519 1519 1519 1520 1521 1522 1523 1524 1525 1525 1526 1527 1528 1530 1530 1531 1532 1533 1533 1534 1536 1537 1537 1536 1537 1537 1536 1536 1536 1537 1538 1539 1541 1542 1543 1544 1544 1544 1547 1548 1546 1544 1545 1546 1547 1548 1548 1549 1550 1550
1460 1462 1463 1464 1466 1468 1470 1472 1473 1475 1478 1480 1483 1485 1488 1490 1492 1494 1496 1497 1499 1501 1503 1504 1504 1506 1507 1508 1510 1510 1512 1513 1511 1511 1513 1514 1515 1517 1518 1519 1519 1519 1520 1522 1523 1524 1524 1525 1526 1527 1529 1529 1530 1531 1531 1532 1533 1534 1535 1535 1535 1536 1536 1536 1536 1536 1536 1537 1538 1539 1540 1541 1543 1543 1543 1543 1545 1544 1543 1542 1543 1544 1546 1547 1547 1548 1549 1550
1460 1461 1463 1464 1466 1468 1470 1472 1474 1475 1477 1480 1483 1485 1487 1489 1491 1493 1495 1497 1499 1500 1502 1503 1504 1505 1506 1508 1509 1510 1511 1511 1509 1510 1512 1513 1515 1516 1517 1518 1518 1519 1520 1521 1523 1524 1524 1525 1526 1527 1528 1529 1531 1531 1531 1532 1533 1534 1536 1536 1535 1535 1535 1536 1537 1536 1536 1537 1537 1539 1540 1541 1542 1542 1542 1542 1541 1541 1541 1542 1543 1544 1545 1546 1547 1547 1548 1548
1459 1460 1462 1464 1466 1467 1469 1471 1473 1475 1477 1480 1482 1484 1486 1488 1490 1493 1495 1496 1498 1500 1501 1502 1503 1504 1506 1507 1508 1509 1509 1508 1508 1510 1511 1513 1514 1515 1516 1517 1517 1518 1519 1521 1522 1523 1524 1524 1525 1527 1529 1530 1531 1531 1531 1532 1533 1534 1535 1536 1535 1535 1535 1536 1537 1536 1537 1537 1537 1538 1539 1541 1541 1541 1542 1541 1539 1540 1541 1542 1542 1543 1544 1545 1546 1546 1546 1547
1457 1459 1461 1463 1465 1467 1469 1471 1473 1475 1477 1479 1482 1484 1486 1488 1490 1492 1494 1495 1497 1499 1500 1501 1502 1503 1505 1506 1507 1508 1508 1508 1508 1509 1511 1512 1513 1514 1515 1516 1517 1518 1519 1520 1522 1523 1524 1524 1525 1526 1528 1530 1530 1531 1531 1532 1534 1534 1535 1535 1536 1536 1536 1536 1537 1537 1537 1538 1538 1539 1539 1541 1541 1542 1541 1538 1538 1540 1541 1541 1541 1542 1542 1544 1544 1545 1546 1546
1456 1458 1460 1462 1464 1466 1468 1470 1473 1475 1477 1479 1481 1483 1485 1487 1489 1491 1493 1495 1496 1498 1499 1501 1502 1503 1504 1505 1507 1507 1507 1507 1508 1509 1510 1512 1512 1513 1514 1515 1516 1517 1518 1520 1521 1522 1523 1524 1525 1525 1527 1529 1529 1530 1531 1533 1534 1533 1534 1535 1536 1536 1536 1537 1537 1538 1538 1538 1539 1539 1540 1541 1542 1542 1539 1536 1537 1539 1540 1540 1540 1541 1541 1542 1543 1544 1545 1545
1455 1456 1458 1460 1463 1465 1467 1470 1472 1475 1477 1478 1480 1483 1484 1486 1488 1490 1492 1494 1496 1497 1499 1500 1502 1503 1504 1505 1506 1506 1506 1506 1507 1508 1510 1511 1512 1513 1513 1515 1516 1517 1518 1519 1520 1522 1523 1524 1524 1525 1526 1528 1529 1531 1532 1533 1533 1532 1534 1535 1536 1537 1537 1538 1538 1538 1538 1539 1539 1539 1541 1541 1542 1542 1538 1535 1536 1537 1538 1539 1539 1540 1540 1541 1542 1543 1544 1544
1453 1455 1457 1459 1462 1464 1466 1469 1472 1474 1476 1478 1480 1481 1483 1485 1487 1490 1492 1494 1495 1497 1498 1500 1502 1502 1503 1504 1504 1505 1505 1506 1507 1507 1509 1510 1511 1512 1513 1514 1515 1517 1518 1519 1520 1521 1523 1524 1524 1525 1526 1527 1529 1531 1532 1532 1532 1533 1534 1535 1537 1537 1538 1538 1538 1539 1538 1539 1539 1539 1540 1541 1542 1541 1536 1535 1536 1536 1537 1537 1538 1539 1539 1540 1541 1542 1542 1543
1452 1454 1456 1458 1460 1463 1466 1468 1470 1473 1476 1478 1479 1481 1482 1485 1486 1489 1491 1493 1495 1496 1498 1500 1501 1502 1503 1503 1503 1504 1504 1505 1506 1507 1508 1509 1511 1512 1513 1514 1515 1516 1517 1519 1520 1521 1523 1523 1524 1525 1525 1527 1529 1531 1532 1533 1534 1534 1534 1536 1539 1538 1538 1538 1539 1539 1538 1539 1539 1540 1542 1542 1540 1537 1534 1535 1536 1535 1536 1536 1537 1538 1538 1539 1540 1541 1541 1541
1451 1453 1455 1457 1459 1462 1465 1467 1469 1472 1475 1477 1479 1480 1482 1484 1486 1488 1490 1492 1494 1495 1497 1499 1500 1501 1502 1502 1502 1503 1504 1504 1505 1506 1507 1509 1510 1511 1512 1513 1515 1516 1518 1519 1520 1521 1522 1523 1524 1524 1525 1527 1529 1531 1531 1533 1534 1535 1537 1538 1540 1541 1539 1538 1539 1539 1538 1539 1539 1541 1544 1540 1535 1534 1533 1535 1535 1535 1536 1535 1536 1537 1537 1538 1538 1539 1539 1540
1450 1452 1454 1456 1458 1461 1463 1466 1468 1471 1474 1476 1478 1480 1481 1483 1485 1487 1489 1491 1493 1495 1496 1498 1500 1500 1501 1501 1501 1502 1503 1504 1504 1505 1507 1508 1510 1511 1512 1513 1515 1516 1518 1519 1520 1521 1522 1523 1524 1524 1526 1527 1529 1530 1533 1535 1536 1538 1540 1541 1546 1546 1540 1539 1540 1539 1538 1540 1539 1541 1545 1538 1532 1532 1533 1534 1534 1534 1534 1534 1535 1535 1536 1536 1537 1537 1538 1539
1449 1451 1453 1455 1457 1460 1462 1465 1467 1470 1472 1475 1477 1479 1481 1482 1484 1486 1488 1490 1492 1494 1495 1497 1499 1500 1500 1500 1500 1501 1502 1503 1504 1504 1506 1508 1509 1510 1512 1513 1515 1516 1518 1519 1520 1520 1521 1522 1523 1525 1527 1527 1529 1531 1535 1537 1539 1542 1542 1545 1552 1549 1541 1540 1540 1540 1539 1540 1540 1541 1544 1539 1532 1532 1532 1532 1532 1533 1533 1533 1534 1534 1535 1535 1535 1536 1536 1537
1448 1450 1452 1454 1456 1458 1461 1464 1467 1469 1471 1474 1477 1479 1481 1482 1483 1485 1487 1489 1492 1493 1495 1497 1498 1499 1499 1499 1499 1499 1500 1502 1503 1504 1506 1507 1509 1510 1512 1513 1515 1516 1518 1519 1519 1520 1521 1522 1523 1525 1527 1528 1531 1532 1537 1542 1543 1545 1545 1546 1551 1548 1544 1542 1540 1540 1540 1540 1540 1541 1542 1538 1533 1531 1531 1532 1532 1532 1532 1532 1533 1533 1533 1534 1534 1534 1534 1535
1447 1449 1451 1453 1455 1457 1460 1463 1465 1468 1470 1473 1476 1478 1480 1481 1482 1484 1486 1489 1491 1492 1494 1496 1498 1499 1498 1497 1498 1498 1499 1501 1502 1504 1505 1507 1509 1510 1512 1513 1515 1516 1518 1519 1519 1520 1521 1522 1524 1525 1527 1530 1532 1532 1540 1547 1546 1547 1547 1547 1550 1550 1547 1544 1540 1541 1541 1540 1541 1542 1542 1538 1533 1531 1530 1531 1532 1532 1532 1531 1532 1532 1532 1532 1532 1533 1532 1533
1446 1448 1450 1452 1454 1456 1459 1462 1464 1467 1469 1472 1475 1477 1479 1481 1482 1484 1486 1488 1490 1492 1495 1496 1497 1500 1498 1495 1496 1497 1498 1501 1502 1504 1505 1507 1509 1510 1512 1513 1514 1516 1517 1519 1519 1520 1521 1522 1524 1526 1529 1532 1532 1532 1537 1543 1541 1542 1544 1544 1548 1550 1549 1546 1542 1541 1541 1541 1542 1543 1543 1538 1533 1532 1529 1529 1531 1531 1530 1530 1530 1531 1531 1531 1531 1530 1530 1530
1445 1447 1448 1451 1453 1456 1458 1461 1463 1466 1468 1471 1473 1476 1478 1480 1482 1484 1485 1487 1489 1491 1493 1492 1492 1495 1494 1491 1494 1496 1498 1500 1502 1503 1505 1507 1508 1510 1512 1513 1514 1515 1517 1518 1519 1520 1521 1523 1525 1528 1530 1530 1530 1529 1530 1533 1533 1535 1540 1540 1541 1544 1545 1545 1542 1541 1542 1542 1542 1542 1541 1537 1533 1532 1530 1528 1529 1530 1529 1528 1528 1528 1528 1528 1528 1527 1527 1527
1444 1445 1447 1449 1452 1455 1457 1460 1462 1465 1467 1469 1471 1474 1477 1479 1482 1485 1486 1486 1487 1488 1488 1488 1489 1490 1489 1489 1493 1495 1497 1500 1501 1503 1505 1506 1508 1510 1511 1513 1514 1516 1516 1517 1519 1520 1520 1523 1526 1526 1526 1526 1527 1530 1531 1533 1535 1536 1539 1540 1541 1541 1541 1543 1543 1542 1543 1541 1542 1543 1542 1539 1535 1532 1530 1527 1528 1529 1527 1526 1525 1525 1525 1525 1525 1524 1524 1523
1442 1444 1446 1448 1451 1454 1457 1459 1461 1464 1466 1468 1470 1472 1474 1475 1477 1480 1483 1486 1487 1487 1487 1487 1489 1490 1489 1490 1492 1494 1497 1499 1501 1503 1504 1506 1508 1509 1511 1513 1514 1516 1517 1518 1519 1520 1521 1524 1524 1522 1524 1526 1528 1532 1532 1534 1536 1537 1537 1537 1541 1543 1541 1542 1543 1542 1543 1541 1542 1545 1543 1538 1534 1531 1528 1526 1527 1525 1523 1523 1521 1521 1521 1521 1522 1521 1520 1519
1441 1443 1445 1447 1450 1453 1455 1458 1460 1463 1465 1467 1468 1470 1472 1474 1475 1475 1479 1484 1486 1487 1487 1487 1489 1490 1490 1491 1493 1494 1496 1499 1501 1503 1504 1506 1507 1508 1510 1512 1513 1516 1518 1518 1519 1522 1525 1524 1521 1522 1526 1529 1532 1534 1532 1533 1535 1537 1539 1537 1539 1544 1543 1543 1543 1543 1544 1541 1540 1544 1540 1533 1531 1529 1525 1523 1523 1521 1520 1520 1519 1519 1518 1518 1518 1517 1517 1516
1440 1441 1444 1446 1449 1452 1454 1457 1459 1461 1464 1465 1467 1470 1472 1474 1476 1477 1479 1483 1485 1487 1487 1487 1489 1490 1491 1492 1494 1495 1495 1497 1500 1501 1503 1505 1506 1507 1509 1511 1513 1516 1518 1517 1519 1524 1526 1522 1520 1524 1527 1527 1531 1534 1531 1533 1535 1537 1538 1537 1539 1545 1543 1540 1542 1544 1545 1544 1543 1542 1538 1531 1527 1526 1521 1519 1519 1518 1518 1518 1516 1516 1515 1514 1514 1514 1514 1514
1438 1440 1442 1444 1448 1450 1452 1456 1458 1460 1463 1465 1468 1470 1472 1474 1476 1478 1479 1482 1485 1486 1487 1487 1488 1489 1490 1491 1493 1495 1496 1497 1498 1500 1502 1504 1505 1507 1508 1510 1513 1516 1517 1517 1517 1520 1521 1521 1521 1524 1526 1526 1529 1533 1531 1531 1535 1539 1537 1535 1537 1540 1540 1540 1542 1544 1544 1546 1546 1541 1535 1528 1524 1524 1519 1517 1519 1517 1516 1515 1513 1513 1512 1511 1511 1511 1511 1511
1437 1439 1441 1443 1447 1449 1452 1455 1456 1460 1462 1465 1467 1469 1472 1474 1476 1478 1479 1483 1486 1486 1487 1487 1488 1489 1489 1491 1492 1494 1496 1497 1498 1499 1501 1503 1504 1506 1507 1509 1511 1515 1518 1519 1519 1519 1519 1521 1522 1523 1526 1526 1527 1531 1531 1530 1534 1538 1536 1534 1534 1534 1536 1541 1543 1543 1543 1544 1546 1545 1538 1529 1523 1522 1518 1517 1519 1516 1514 1514 1511 1510 1510 1509 1508 1507 1508 1509
1436 1438 1440 1443 1446 1448 1452 1454 1456 1459 1461 1464 1467 1469 1472 1473 1476 1478 1479 1486 1488 1484 1486 1486 1487 1487 1488 1490 1491 1494 1497 1497 1497 1498 1500 1502 1503 1504 1506 1509 1510 1514 1518 1519 1520 1520 1521 1522 1522 1522 1524 1526 1527 1529 1530 1532 1535 1537 1536 1535 1535 1534 1536 1539 1539 1541 1543 1545 1549 1550 1545 1538 1528 1519 1518 1520 1520 1515 1513 1512 1509 1508 1507 1507 1506 1504 1505 1507
1434 1437 1439 1442 1444 1447 1451 1452 1455 1458 1460 1464 1465 1468 1471 1472 1477 1476 1480 1496 1492 1479 1482 1485 1484 1485 1486 1489 1490 1493 1497 1495 1495 1498 1499 1501 1503 1503 1505 1508 1509 1512 1516 1517 1520 1521 1520 1522 1523 1522 1523 1526 1527 1528 1529 1532 1534 1536 1537 1537 1536 1534 1536 1539 1539 1541 1546 1547 1549 1550 1547 1546 1536 1523 1522 1525 1520 1514 1511 1510 1508 1506 1505 1504 1503 1503 1504 1505
1433 1436 1438 1441 1444 1446 1449 1451 1453 1456 1459 1463 1464 1469 1471 1472 1477 1475 1484 1501 1489 1473 1477 1481 1482 1483 1485 1488 1489 1490 1492 1492 1494 1498 1498 1500 1502 1503 1505 1507 1508 1511 1514 1516 1519 1521 1520 1521 1522 1521 1523 1526 1526 1527 1529 1530 1531 1535 1539 1539 1538 1538 1539 1541 1541 1544 1551 1550 1547 1549 1549 1549 1539 1525 1525 1527 1520 1514 1510 1509 1508 1506 1504 1503 1502 1502 1503 1505
1433 1436 1438 1441 1443 1446 1449 1450 1453 1456 1459 1462 1465 1468 1470 1473 1476 1476 1489 1494 1476 1468 1475 1478 1480 1483 1484 1487 1489 1489 1490 1491 1492 1495 1498 1500 1502 1502 1504 1507 1508 1512 1515 1515 1516 1520 1522 1522 1521 1521 1521 1523 1527 1530 1532 1529 1529 1535 1540 1540 1541 1544 1544 1545 1544 1544 1550 1550 1546 1547 1548 1547 1536 1522 1522 1525 1519 1514 1510 1509 1509 1506 1504 1503 1503 1504 1504 1505
1434 1436 1438 1441 1443 1446 1448 1450 1453 1456 1459 1462 1465 1467 1470 1473 1475 1484 1497 1486 1466 1469 1475 1476 1479 1481 1482 1487 1490 1490 1490 1492 1492 1494 1498 1500 1502 1503 1504 1507 1509 1512 1516 1517 1519 1522 1523 1522 1522 1523 1522 1523 1528 1532 1533 1531 1531 1534 1538 1538 1540 1544 1544 1546 1549 1547 1549 1549 1547 1552 1553 1549 1541 1523 1516 1517 1514 1512 1511 1510 1509 1506 1505 1505 1504 1506 1506 1506
1434 1436 1438 1440 1443 1445 1447 1449 1452 1455 1459 1462 1464 1467 1469 1474 1478 1488 1492 1472 1462 1473 1476 1476 1480 1479 1480 1483 1487 1491 1491 1493 1493 1494 1497 1500 1502 1503 1505 1508 1510 1515 1519 1520 1521 1524 1524 1523 1524 1524 1523 1525 1527 1530 1534 1534 1534 1534 1534 1536 1540 1545 1547 1549 1552 1551 1552 1549 1550 1560 1560 1553 1545 1525 1512 1514 1513 1512 1512 1510 1509 1507 1506 1506 1506 1507 1507 1507
1434 1437 1439 1441 1443 1445 1447 1449 1451 1455 1459 1461 1464 1466 1468 1478 1483 1480 1476 1464 1463 1472 1472 1474 1478 1478 1479 1480 1484 1489 1490 1493 1494 1494 1496 1499 1502 1502 1503 1504 1506 1515 1523 1522 1523 1525 1524 1523 1525 1524 1524 1524 1523 1529 1536 1537 1536 1534 1534 1537 1543 1551 1555 1553 1556 1560 1557 1552 1554 1562 1560 1551 1541 1524 1512 1512 1510 1510 1512 1510 1509 1509 1507 1507 1508 1508 1508 1508
1434 1437 1439 1442 1443 1445 1447 1449 1451 1454 1457 1460 1464 1464 1468 1480 1478 1467 1466 1466 1464 1466 1467 1470 1474 1476 1479 1481 1485 1488 1489 1492 1494 1494 1496 1498 1501 1503 1502 1503 1503 1507 1515 1521 1524 1526 1526 1526 1525 1524 1524 1523 1520 1526 1534 1536 1536 1533 1532 1536 1541 1553 1559 1557 1563 1568 1559 1553 1557 1564 1558 1545 1532 1519 1512 1510 1507 1508 1509 1509 1509 1508 1507 1507 1507 1508 1507 1508
1434 1437 1439 1441 1443 1446 1447 1449 1451 1453 1456 1459 1462 1465 1471 1475 1465 1456 1463 1466 1464 1466 1467 1469 1474 1478 1479 1480 1484 1484 1486 1493 1494 1494 1497 1499 1503 1504 1502 1503 1503 1502 1508 1519 1523 1523 1525 1525 1521 1520 1520 1520 1520 1521 1524 1528 1532 1534 1534 1535 1536 1541 1546 1547 1552 1552 1548 1551 1559 1562 1552 1532 1518 1512 1509 1508 1508 1508 1507 1508 1509 1507 1507 1507 1507 1508 1507 1508
1434 1437 1439 1441 1443 1445 1446 1448 1451 1453 1456 1458 1460 1466 1469 1462 1455 1455 1459 1461 1464 1467 1468 1470 1473 1479 1482 1482 1483 1482 1483 1490 1494 1495 1497 1498 1500 1500 1498 1499 1502 1502 1504 1514 1520 1520 1522 1519 1516 1518 1518 1517 1520 1520 1521 1524 1531 1538 1539 1537 1535 1533 1534 1547 1557 1556 1554 1555 1555 1554 1542 1525 1515 1509 1507 1508 1508 1507 1506 1506 1508 1507 1506 1507 1507 1508 1509 1508
1434 1437 1439 1441 1442 1444 1446 1448 1450 1453 1455 1457 1462 1465 1459 1450 1451 1454 1452 1455 1461 1464 1469 1473 1475 1479 1484 1484 1484 1484 1482 1486 1493 1495 1497 1498 1496 1496 1495 1493 1496 1498 1496 1503 1514 1518 1519 1519 1519 1520 1519 1519 1520 1520 1522 1523 1527 1537 1538 1535 1536 1536 1534 1545 1561 1567 1564 1553 1545 1545 1534 1522 1519 1509 1503 1506 1505 1506 1507 1505 1506 1507 1506 1507 1507 1508 1509 1509
1433 1436 1438 1440 1441 1444 1446 1447 1450 1452 1454 1456 1459 1457 1450 1447 1451 1451 1449 1452 1457 1459 1464 1471 1474 1476 1480 1482 1483 1483 1482 1485 1491 1493 1494 1497 1494 1491 1492 1491 1491 1493 1492 1495 1504 1509 1512 1518 1522 1521 1519 1521 1522 1521 1523 1523 1524 1531 1534 1531 1534 1539 1537 1538 1546 1557 1563 1554 1543 1542 1535 1526 1523 1514 1505 1505 1503 1503 1506 1506 1507 1506 1505 1506 1508 1508 1510 1510
1433 1435 1436 1438 1440 1442 1445 1447 1450 1451 1454 1457 1455 1450 1447 1449 1450 1450 1450 1451 1454 1457 1460 1465 1469 1471 1474 1478 1480 1481 1481 1483 1489 1491 1491 1494 1489 1482 1486 1488 1487 1490 1490 1491 1497 1501 1505 1512 1522 1526 1523 1523 1523 1522 1524 1525 1525 1526 1526 1528 1530 1534 1538 1541 1543 1546 1554 1555 1543 1540 1542 1533 1525 1516 1506 1502 1502 1501 1502 1506 1507 1506 1506 1507 1508 1508 1510 1510
1434 1435 1436 1437 1439 1441 1443 1446 1449 1451 1455 1456 1451 1447 1448 1449 1450 1450 1450 1450 1452 1455 1458 1460 1464 1468 1472 1473 1475 1479 1480 1480 1486 1488 1487 1489 1485 1478 1480 1482 1484 1488 1490 1490 1494 1499 1502 1507 1518 1526 1525 1524 1524 1523 1522 1524 1527 1527 1526 1529 1530 1530 1533 1537 1541 1540 1541 1549 1545 1537 1534 1524 1516 1514 1505 1499 1501 1499 1499 1505 1507 1507 1508 1508 1508 1509 1510 1510
1435 1436 1437 1437 1438 1440 1442 1445 1448 1451 1453 1450 1446 1447 1449 1448 1449 1450 1450 1451 1451 1452 1455 1457 1460 1465 1470 1472 1473 1476 1478 1479 1484 1484 1482 1483 1483 1479 1478 1478 1481 1486 1490 1492 1494 1498 1502 1504 1512 1525 1529 1526 1522 1519 1516 1517 1523 1525 1527 1530 1530 1533 1536 1535 1539 1541 1537 1540 1545 1539 1528 1515 1509 1509 1502 1497 1498 1499 1501 1504 1505 1507 1508 1509 1510 1510 1510 1510
1435 1437 1437 1437 1438 1440 1442 1445 1448 1449 1449 1446 1446 1448 1449 1448 1449 1450 1450 1451 1452 1452 1453 1455 1457 1460 1464 1469 1471 1472 1476 1480 1482 1482 1480 1480 1479 1477 1475 1475 1478 1483 1489 1494 1494 1495 1500 1503 1511 1524 1528 1521 1516 1516 1516 1515 1517 1517 1518 1522 1522 1526 1532 1533 1537 1543 1540 1537 1540 1540 1529 1512 1504 1503 1501 1499 1500 1501 1503 1503 1504 1508 1508 1509 1510 1509 1509 1510
1434 1436 1436 1436 1438 1440 1441 1444 1447 1447 1447 1446 1446 1447 1447 1448 1449 1450 1450 1451 1451 1453 1454 1454 1457 1458 1460 1463 1466 1469 1473 1477 1480 1480 1476 1475 1474 1473 1473 1473 1476 1479 1484 1490 1491 1490 1496 1504 1511 1519 1521 1517 1515 1517 1519 1517 1516 1517 1517 1517 1518 1519 1522 1524 1529 1537 1541 1540 1542 1545 1535 1511 1500 1502 1502 1502 1502 1502 1503 1503 1504 1507 1507 1508 1508 1508 1508 1509
1433 1435 1435 1436 1438 1439 1442 1445 1447 1447 1447 1446 1446 1446 1447 1448 1449 1450 1450 1451 1451 1453 1454 1454 1455 1457 1458 1460 1463 1466 1469 1472 1476 1475 1472 1472 1473 1471 1472 1473 1475 1478 1480 1484 1488 1490 1494 1499 1506 1514 1518 1516 1515 1516 1518 1518 1518 1518 1518 1518 1519 1519 1517 1518 1523 1528 1532 1533 1536 1544 1537 1511 1500 1503 1502 1501 1503 1503 1504 1504 1504 1505 1506 1507 1507 1506 1506 1506
1433 1435 1435 1436 1438 1439 1442 1444 1443 1445 1447 1447 1447 1448 1448 1448 1449 1450 1450 1451 1451 1452 1453 1454 1454 1455 1457 1459 1460 1462 1464 1466 1470 1471 1470 1471 1471 1470 1472 1472 1473 1476 1477 1478 1481 1484 1489 1495 1501 1512 1519 1519 1519 1519 1517 1517 1517 1516 1515 1517 1516 1517 1520 1523 1526 1529 1528 1525 1525 1531 1526 1508 1501 1503 1502 1501 1503 1503 1504 1504 1504 1505 1506 1505 1505 1504 1503 1503
1433 1435 1435 1436 1437 1438 1440 1441 1441 1443 1446 1448 1449 1449 1448 1449 1448 1449 1450 1450 1451 1452 1452 1453 1454 1454 1457 1460 1460 1461 1462 1462 1464 1467 1470 1471 1470 1471 1471 1472 1473 1473 1473 1475 1475 1478 1485 1490 1493 1501 1510 1512 1511 1509 1504 1506 1514 1515 1513 1515 1515 1516 1519 1519 1522 1528 1526 1522 1523 1520 1512 1505 1503 1503 1502 1503 1503 1502 1503 1503 1503 1505 1505 1504 1504 1502 1501 1501
1433 1434 1436 1436 1437 1438 1439 1440 1441 1444 1445 1447 1449 1449 1449 1449 1448 1448 1449 1450 1451 1451 1452 1453 1453 1454 1457 1459 1459 1461 1462 1463 1463 1465 1467 1468 1469 1471 1471 1471 1472 1473 1473 1475 1476 1478 1483 1487 1486 1487 1490 1490 1489 1491 1491 1496 1506 1510 1508 1511 1513 1514 1514 1514 1520 1523 1517 1518 1522 1512 1505 1505 1504 1503 1503 1502 1501 1501 1501 1502 1502 1503 1503 1503 1502 1501 1501 1502
1432 1433 1434 1435 1437 1437 1438 1439 1440 1442 1443 1444 1446 1446 1447 1448 1448 1448 1449 1450 1450 1451 1452 1453 1453 1454 1455 1456 1458 1460 1462 1465 1465 1464 1465 1467 1468 1471 1471 1471 1472 1472 1474 1475 1476 1478 1482 1484 1484 1483 1482 1480 1481 1486 1489 1490 1495 1499 1502 1506 1509 1511 1512 1514 1514 1509 1506 1515 1515 1504 1504 1508 1502 1501 1502 1499 1499 1500 1499 1500 1500 1500 1501 1501 1501 1501 1502 1503
1432 1432 1431 1432 1433 1434 1435 1435 1437 1439 1441 1443 1444 1444 1446 1448 1448 1448 1448 1449 1450 1450 1452 1454 1453 1453 1453 1453 1455 1459 1462 1465 1465 1464 1465 1467 1469 1470 1471 1471 1472 1472 1473 1476 1476 1478 1480 1480 1481 1484 1483 1482 1483 1488 1489 1488 1489 1491 1495 1500 1503 1508 1511 1510 1506 1501 1503 1509 1501 1494 1502 1502 1493 1496 1498 1494 1495 1496 1496 1498 1499 1499 1499 1499 1500 1501 1502 1503
1431 1431 1431 1432 1432 1432 1432 1432 1434 1438 1440 1441 1443 1443 1445 1447 1447 1446 1446 1449 1451 1450 1451 1452 1452 1453 1454 1454 1453 1456 1459 1460 1461 1463 1465 1466 1468 1470 1470 1470 1472 1472 1473 1475 1476 1477 1479 1478 1480 1483 1484 1482 1486 1490 1490 1489 1489 1490 1493 1495 1497 1502 1504 1502 1499 1495 1497 1500 1493 1491 1499 1495 1487 1492 1494 1491 1493 1495 1495 1498 1498 1497 1498 1498 1499 1501 1501 1503
1431 1431 1431 1432 1432 1432 1432 1432 1434 1437 1439 1440 1441 1441 1442 1444 1445 1444 1444 1446 1449 1450 1450 1451 1452 1453 1454 1455 1454 1455 1455 1454 1455 1460 1463 1465 1466 1468 1468 1467 1469 1472 1473 1474 1476 1477 1478 1479 1481 1483 1484 1484 1486 1490 1492 1491 1489 1489 1491 1494 1496 1499 1500 1498 1495 1493 1497 1500 1494 1494 1499 1493 1487 1490 1491 1491 1493 1494 1495 1497 1496 1496 1497 1498 1500 1501 1502 1503
1430 1430 1431 1432 1432 1433 1433 1432 1433 1435 1437 1438 1438 1437 1438 1440 1441 1442 1443 1443 1445 1447 1448 1449 1452 1454 1455 1456 1454 1453 1454 1454 1456 1458 1460 1462 1464 1466 1466 1466 1468 1471 1472 1473 1476 1476 1477 1481 1482 1484 1484 1483 1485 1490 1493 1494 1493 1493 1492 1492 1493 1494 1493 1492 1491 1491 1493 1495 1494 1498 1498 1489 1483 1487 1489 1490 1492 1494 1495 1495 1495 1496 1498 1499 1500 1500 1501 1501
1429 1430 1431 1432 1433 1433 1433 1432 1433 1433 1433 1432 1431 1433 1434 1436 1437 1441 1444 1444 1443 1444 1446 1447 1450 1453 1454 1455 1453 1452 1454 1455 1456 1458 1459 1461 1462 1464 1465 1466 1467 1468 1470 1473 1475 1476 1477 1478 1480 1483 1482 1481 1487 1491 1491 1493 1497 1495 1486 1481 1482 1484 1485 1487 1489 1487 1486 1487 1490 1492 1487 1480 1481 1486 1488 1489 1492 1493 1493 1494 1495 1496 1497 1498 1498 1499 1499 1499